GEOSCAN 4 (RS92S4)

Last updated on Sun Aug 09 2026 00:03:16 GMT+0000 (Coordinated Universal Time)

1 64892U 25155S 26220.56931777 .00008442 00000+0 25263-3 0 9992 2 64892 97.4586 190.5409 0006033 19.7061 340.4414 15.34782866 88853
UTC large
Height (km)
Speed (km/s)
/
Latitude / Longitude
Inclination (degrees)
Orbital Period (minutes)
Azimuth
Elevation
Range (km)
Doppler Factor

Next 0 passes for location: London (51.5072 / 0.1276)

No passes found over London.
GEOSCAN 4 (RS92S4)